Regional Weather Roundup
Issued by NWS

Home | Current Version | Previous Version | Graphics & Text | Print | Product List | Glossary On
Versions: 1 2 3 4 5 6 7 8 9 10 11 12 13 14 15 16 17 18 19 20 21 22 23 24 25 26 27 28 29 30 31 32 33 34 35 36 37 38 39 40 41 42 43 44 45 46 47 48 49 50
000
ASUS45 KABQ 070901
RWRNM
NEW MEXICO REGIONAL WEATHER ROUNDUP
NATIONAL WEATHER SERVICE ALBUQUERQUE NM
300 AM MDT TUE JUL 07 2015

NOTE: "FAIR" MEANS FEW OR NO CLOUDS BELOW 12,000 FEET AGL WITH NO
       SIGNIFICANT WEATHER OR OBSTRUCTIONS TO VISION.

      THIS PRODUCT IS RELEASED AS TWO VERSIONS.  ONE VERSION NEAR
      THE TOP OF THE HOUR CONTAINING PRELIMINARY DATA FROM ALBUQUERQUE
      AND OTHER STATIONS.  A FINAL VERSION WITH ADDITIONAL DATA IS
      ISSUED ABOUT 10 MINUTES AFTER THE HOUR.

NMZ501-503-504-510>518-071000-
NORTHWEST PLATEAU/NORTHCENTRAL MOUNTAINS

CITY           SKY/WX    TMP DP  RH WIND       PRES   REMARKS
FARMINGTON     PTCLDY    64  54  69 CALM      30.14F
SANTA FE       LGT RAIN  60  57  89 W3        30.26F
TAOS           CLOUDY    57  46  67 NE8       30.31F

$$
NMZ402-403-502-505>509-071000-
WESTCENTRAL MOUNTAINS/SOUTHWEST MOUNTAINS

CITY           SKY/WX    TMP DP  RH WIND       PRES   REMARKS
GALLUP         PTCLDY    57  54  89 CALM      30.23F
SILVER CITY      N/A     68  55  64 N8        30.16S

$$
NMZ407-409-411-412-071000-
SOUTHERN DESERTS

CITY           SKY/WX    TMP DP  RH WIND       PRES   REMARKS
DEMING         CLEAR     73  58  59 NE3       30.08R
ALAMOGORDO     MOCLDY    73  59  60 S7        30.05S
T OR C         CLEAR     68  60  75 N20G25    30.12S

$$
NMZ519>523-071000-
CENTRAL VALLEYS/CENTRAL HIGHLANDS

CITY           SKY/WX    TMP DP  RH WIND       PRES   REMARKS
ALBUQUERQUE    TSTM      61  58  90 SE7       30.24F FOG
DOUBLE EAGLE   RAIN      60  59  98 S9        30.27S
CLINES CORNERS LGT RAIN  56  54  93 E17G28    30.30S
BELEN          LGT RAIN  63  62  96 NE9       30.23R
SOCORRO        NOT AVBL

$$
NMZ524>526-539-540-071000-
SOUTHCENTRAL MOUNTAINS

CITY           SKY/WX    TMP DP  RH WIND       PRES   REMARKS
RUIDOSO        NOT AVBL

$$
NMZ527>531-071000-
NORTHEAST HIGHLANDS/NORTHEAST PLAINS

CITY           SKY/WX    TMP DP  RH WIND       PRES   REMARKS
LAS VEGAS      LGT RAIN  56  54  93 NE8       30.32F
RATON          CLOUDY    58  54  86 E7        30.29F
CLAYTON        CLOUDY    60  57  89 N12       30.22F FOG

$$
NMZ532>537-071000-
EASTCENTRAL PLAINS

CITY           SKY/WX    TMP DP  RH WIND       PRES   REMARKS
TUCUMCARI      CLOUDY    66  61  84 NE13      30.15F
CANNON AFB     CLOUDY    64  62  92 NE16G23   30.13F
CLOVIS AIRPORT CLOUDY    63  61  94 NE16        N/A

$$
NMZ028-029-538-071000-
SOUTHEAST PLAINS

CITY           SKY/WX    TMP DP  RH WIND       PRES   REMARKS
ROSWELL        CLOUDY    68  65  90 N14       30.09F
ARTESIA        CLOUDY    68  68 100 N16G22    30.08R
CARLSBAD       CLOUDY    72  67  84 NW15      30.03F
HOBBS          CLOUDY    68  68 100 N18       30.03F


$$



USA.gov is the U.S. government's official web portal to all federal, state and local government web resources and services.